Regional Weather Roundup
Issued by NWS

Home | Current Version | Previous Version | Text Only | Print | Product List | Glossary On
Versions: 1 2 3 4 5 6 7 8 9 10 11 12 13 14 15 16 17 18 19 20 21 22 23 24 25 26 27 28 29 30 31 32 33 34 35 36 37 38 39 40 41 42 43 44 45 46 47 48 49 50
000
ASUS43 KMPX 202210
RWRMN
WEATHER ROUNDUP FOR MINNESOTA
NATIONAL WEATHER SERVICE TWIN CITIES/CHANHASSEN MN
500 PM CDT MON OCT 20 2014


NOTE: "FAIR" INDICATES FEW OR NO CLOUDS BELOW 12,000 FEET WITH NO
SIGNIFICANT WEATHER AND/OR OBSTRUCTIONS TO VISIBILITY. N/A MEANS
CURRENT SKY AND/OR WEATHER CONDITIONS ARE NOT AVAILABLE.

MNZ060>063-068>070-202300-
   Twin Cities Metro

CITY           SKY/WX    TMP DP  RH WIND       PRES   REMARKS
TWIN CITIES    SUNNY     62  41  46 W13       29.99R
ST PAUL        SUNNY     61  40  45 N10       30.00R
CRYSTAL        SUNNY     64  41  42 NW10      29.99R
BLAINE         SUNNY     63  43  48 N12G17    29.99R
LAKEVILLE      SUNNY     61  41  48 NW10      29.99R
EDEN PRAIRIE   SUNNY     63  41  44 N10       29.98R
SOUTH ST PAUL  SUNNY     62  38  41 N10       29.99R
LAKE ELMO      FAIR      59  43  55 N6        30.00R
$$
MNZ001>005-007-008-013>017-022>024-027-028-202300-
   Northwest Minnesota

CITY           SKY/WX    TMP DP  RH WIND       PRES   REMARKS
BEMIDJI        SUNNY     51  38  61 N5        30.04R
HALLOCK        SUNNY     57  41  54 S3        30.04R
ROSEAU         SUNNY     52  39  62 CALM      30.05S
WARROAD        SUNNY     48  41  76 E6        30.06S
THIEF RVR FALL SUNNY     54  39  58 CALM      30.05R
CROOKSTON      SUNNY     57  43  58 E3        30.04S
FOSSTON        SUNNY     57  37  47 N5        30.05R
DETROIT LAKES  SUNNY     59  39  47 NW8       30.05R
MOORHEAD       SUNNY     63  43  48 NE6       30.04S
PARK RAPIDS    SUNNY     59  34  39 NW8       30.02R
MAHNOMEN       FAIR      56  37  48 N6        30.03S
$$
MNZ006-009>011-018-025>026-202300-
   North Central Minnesota

CITY           SKY/WX    TMP DP  RH WIND       PRES   REMARKS
BAUDETTE       SUNNY     48  37  65 NW7       30.06R
FLAG ISLAND    SUNNY     48  37  66 NE6       30.05R
INTL FALLS     CLOUDY    46  36  68 N7        30.06R
WASKISH        SUNNY     48  39  71 CALM      30.05S
BIG FORK       PTSUNNY   46  37  71 N6        30.05S
LONGVILLE      SUNNY     54  39  58 N5        30.03R
GRAND RAPIDS   CLOUDY    46  37  71 N7        30.05R
CRANE LAKE     CLOUDY    45  37  76 NW5       30.07R
ORR            CLOUDY    46  34  61 CALM      30.03R
COOK           CLOUDY    46  37  71 CALM      30.05R
WALKER         FAIR      52  39  61 NE5       30.03R
$$
MNZ012-019>021-037-202300-
   Northeast Minnesota

CITY           SKY/WX    TMP DP  RH WIND       PRES   REMARKS
DULUTH         CLOUDY    48  38  68 N9        30.02R
ELY            CLOUDY    45  36  70 NW5       30.03R
HIBBING        CLOUDY    49  36  61 NE7       30.03S
EVELETH        PTSUNNY   45  36  70 N6        30.05R
DULUTH HARBOR  CLOUDY    52  43  71 N6        30.04R
TWO HARBORS    CLOUDY    52  27  37 NW6       30.01R
SILVER BAY     SUNNY     50  37  62 N3        30.00R
GRAND MARAIS     N/A     50  38  63 N6        30.01R
G MARAIS ARPRT MOCLDY    43  34  70 N13G20    30.00R
$$
MNZ029>031-032-039>041-046>048-054>057-064-202300-
   West Central Minnesota

CITY           SKY/WX    TMP DP  RH WIND       PRES   REMARKS
FERGUS FALLS   SUNNY     63  36  36 N9        30.03S
WHEATON        SUNNY     64  39  39 N8        30.04S
MORRIS         SUNNY     64  41  42 N10       30.02R
ALEXANDRIA     SUNNY     62  36  37 N10       30.03R
ELBOW LAKE     FAIR      62  41  46 N8        30.02S
WADENA         SUNNY     61  39  44 NW7       30.02R
GLENWOOD       SUNNY     63  36  36 NW12      30.03R
APPLETON       SUNNY     68  36  30 N10       30.02R
BENSON         SUNNY     64  39  39 N8        30.02S
ORTONVILLE     SUNNY     66  37  34 N9        30.03R
MADISON        SUNNY     70  39  32 N8        30.02S
WILLMAR        FAIR      66  37  34 NW12      30.03R
$$
MNZ033>034-036-042>043-049>051-058-059-202300-
   Central Minnesota

CITY           SKY/WX    TMP DP  RH WIND       PRES   REMARKS
ST CLOUD       SUNNY     65  40  39 N7        30.01R
SAUK CENTRE    FAIR      62  38  40 NW10      30.02R
PAYNESVILLE    SUNNY     61  36  40 W12       30.02R
AITKIN         SUNNY     57  41  54 N7        30.01R
PINE RIVER     SUNNY     55  41  58 N5        30.05S
BRAINERD       SUNNY     55  39  54 N8        30.02S
STAPLES        SUNNY     61  32  33 N9        30.02R
LONG PRAIRIE   FAIR      61  37  41 NW9       30.02S
LITTLE FALLS   SUNNY     61  34  36 N5        30.01S
LITCHFIELD     SUNNY     64  37  36 N10       30.01R
BUFFALO        SUNNY     62  38  41 NW8       30.01S
MAPLE LAKE     SUNNY     62  41  46 N8        30.01S
$$
MNZ037-044-045-052-053-202300-
   East Central Minnesota

CITY           SKY/WX    TMP DP  RH WIND       PRES   REMARKS
PRINCETON      SUNNY     61  43  51 N7        30.01R
MORA           SUNNY     55  39  54 NW8       30.03R
CAMBRIDGE      SUNNY     59  43  55 N8        29.99S
RUSH CITY      MOSUNNY   55  41  59 N7        30.02R
MOOSE LAKE     CLOUDY    50  37  62 N7        30.02R
HINCKLEY       FAIR      54  41  62 N7        30.02R
CLOQUET        CLOUDY    50  37  62 NW12      30.03R
MCGREGOR       MOSUNNY   50  39  66 N9        30.04R
$$
MNZ071>073-080-081-089-090-097-098-202300-
   Southwest Minnesota

CITY           SKY/WX    TMP DP  RH WIND       PRES   REMARKS
MONTEVIDEO     SUNNY     70  39  32 N9        30.03R
GRANITE FALLS  SUNNY     67  38  34 NW9       30.03S
CANBY          SUNNY     67  40  36 N7        30.04R
MARSHALL       SUNNY     68  36  30 N14       30.02S
REDWOOD FALLS  SUNNY     67  39  35 NW12      30.01S
OLIVIA         SUNNY     64  37  36 N13       30.01R
PIPESTONE      SUNNY     70  34  26 N7        30.04S
WINDOM         SUNNY     66  36  32 NW13      30.03S
WORTHINGTON    SUNNY     68  36  30 NW13      30.04S
JACKSON        SUNNY     68  34  28 NW8       30.03S
TRACY          SUNNY     68  37  31 NW10      30.03S
SLAYTON        SUNNY     67  33  27 NW10      30.04S
$$
MNZ065>067-074>077-082>085-091>093-202300-
   South Central Minnesota

CITY           SKY/WX    TMP DP  RH WIND       PRES   REMARKS
MANKATO        SUNNY     66  39  37 NW14G20   29.99S
NEW ULM        SUNNY     64  41  42 NW15      30.00S
FAIRMONT       SUNNY     66  30  26 NW12      30.01S
GLENCOE        SUNNY     65  41  41 NW9       29.99S
FARIBAULT      SUNNY     64  37  36 N10       29.99S
OWATONNA       SUNNY     63  39  42 NW12      29.99R
WASECA         SUNNY     63  34  34 NW10      30.01R
ALBERT LEA     SUNNY     64  39  39 NW8       29.99S
$$
MNZ078>079-086>088-094>096-202300-
   Southeast Minnesota

CITY           SKY/WX    TMP DP  RH WIND       PRES   REMARKS
ROCHESTER      SUNNY     61  40  45 NW9       29.99R
RED WING       SUNNY     63  39  42 N7        29.97R
STANTON        SUNNY     63  42  46 NW10      29.98R
DODGE CENTER   SUNNY     61  41  48 N10G17    29.99R
WINONA         SUNNY     61  41  48 NW10G16   29.97R
AUSTIN         SUNNY     63  41  45 NW15      29.98S
PRESTON        SUNNY     59  40  49 N10G18    29.98R
$$
ABBREVIATIONS USED IN REMARKS
   TC - TEMPERATURES IN CELSIUS
  WCI - WIND CHILL INDEX
   HX - HEAT INDEX
  VSB - VISIBILITY
$$


USA.gov is the U.S. government's official web portal to all federal, state and local government web resources and services.